| time (UTC) | temp C | wind direction | speed KPH | gust KPH | rain 1hr cm | rain 24hr cm | rain mn cm | humidity % | barometer mb |
| 20260507020939 | 11 | 157 | 0.0 | 3.2 | 0.00 | 0.00 | 0.94 | 72 | 988.4 |
| 20260507020318 | 11 | 100 | 0.0 | 3.2 | 0.00 | 0.00 | 0.94 | 73 | 988.4 |
| 20260507015728 | 11 | 146 | 1.6 | 3.2 | 0.00 | 0.00 | 0.94 | 70 | 988.4 |
| 20260507015145 | 11 | 334 | 0.0 | 4.8 | 0.00 | 0.00 | 0.94 | 67 | 988.1 |
| 20260507014513 | 11 | 54 | 0.0 | 4.8 | 0.00 | 0.00 | 0.94 | 71 | 988.8 |
| 20260507013930 | 11 | 181 | 1.6 | 4.8 | 0.00 | 0.00 | 0.94 | 66 | 988.4 |
| 20260507013354 | 11 | 314 | 1.6 | 4.8 | 0.00 | 0.00 | 0.94 | 66 | 988.8 |
| 20260507012144 | 12 | 160 | 3.2 | 4.8 | 0.00 | 0.00 | 0.94 | 64 | 988.4 |
| 20260507011532 | 12 | 6 | 0.0 | 8.0 | 0.00 | 0.00 | 0.94 | 66 | 988.1 |
| 20260507010954 | 12 | 199 | 1.6 | 4.8 | 0.00 | 0.00 | 0.94 | 63 | 988.4 |
| 20260507010329 | 12 | 260 | 3.2 | 8.0 | 0.00 | 0.00 | 0.94 | 63 | 988.1 |
| 20260507005135 | 12 | 143 | 1.6 | 6.4 | 0.00 | 0.00 | 0.94 | 65 | 987.8 |
| 20260507004543 | 12 | 354 | 4.8 | 8.0 | 0.00 | 0.00 | 0.94 | 63 | 987.8 |
| 20260507003345 | 12 | 162 | 3.2 | 4.8 | 0.00 | 0.00 | 0.94 | 63 | 987.8 |
| 20260507002729 | 12 | 21 | 1.6 | 4.8 | 0.00 | 0.00 | 0.94 | 64 | 987.4 |
| 20260507001548 | 12 | 3 | 0.0 | 11.3 | 0.00 | 0.00 | 0.94 | 63 | 987.4 |
| 20260507000314 | 13 | 52 | 3.2 | 8.0 | 0.00 | 0.00 | 0.94 | 60 | 987.1 |
| 20260506235729 | 13 | 166 | 1.6 | 11.3 | 0.00 | 0.00 | 0.94 | 60 | 986.7 |
| 20260506235133 | 13 | 180 | 3.2 | 14.5 | 0.00 | 0.00 | 0.94 | 61 | 987.1 |
| 20260506234523 | 13 | 21 | 4.8 | 11.3 | 0.00 | 0.00 | 0.94 | 62 | 987.1 |
| 20260506233939 | 13 | 210 | 0.0 | 9.7 | 0.00 | 0.00 | 0.94 | 61 | 987.1 |
| 20260506233351 | 13 | 221 | 8.0 | 11.3 | 0.00 | 0.00 | 0.94 | 60 | 987.1 |
| 20260506232743 | 13 | 359 | 4.8 | 6.4 | 0.00 | 0.00 | 0.94 | 61 | 987.1 |
| 20260506232149 | 13 | 210 | 9.7 | 14.5 | 0.00 | 0.00 | 0.94 | 60 | 987.1 |
| 20260506231525 | 13 | 329 | 6.4 | 12.9 | 0.00 | 0.00 | 0.94 | 60 | 987.4 |
| 20260506230932 | 14 | 201 | 4.8 | 12.9 | 0.00 | 0.00 | 0.94 | 60 | 987.4 |
| 20260506230329 | 14 | 19 | 4.8 | 8.0 | 0.00 | 0.00 | 0.94 | 59 | 987.4 |
| 20260506225711 | 14 | 222 | 9.7 | 14.5 | 0.00 | 0.00 | 0.94 | 58 | 987.4 |
| 20260506225110 | 14 | 53 | 0.0 | 16.1 | 0.00 | 0.00 | 0.94 | 58 | 987.4 |
| 20260506224517 | 15 | 199 | 0.0 | 4.8 | 0.00 | 0.00 | 0.94 | 59 | 987.1 |
| 20260506223932 | 15 | 115 | 0.0 | 6.4 | 0.00 | 0.00 | 0.94 | 63 | 987.4 |
| 20260506223327 | 15 | 13 | 1.6 | 6.4 | 0.00 | 0.00 | 0.94 | 59 | 987.8 |
| 20260506222722 | 15 | 16 | 3.2 | 6.4 | 0.00 | 0.00 | 0.94 | 60 | 987.4 |
| 20260506222145 | 15 | 56 | 0.0 | 8.0 | 0.00 | 0.00 | 0.94 | 57 | 987.4 |
| 20260506221515 | 15 | 346 | 4.8 | 6.4 | 0.00 | 0.00 | 0.94 | 55 | 987.1 |
| 20260506220918 | 15 | 224 | 1.6 | 8.0 | 0.00 | 0.00 | 0.94 | 54 | 987.1 |
| 20260506220343 | 15 | 338 | 4.8 | 6.4 | 0.00 | 0.00 | 0.94 | 55 | 987.1 |
| 20260506215738 | 16 | 227 | 3.2 | 6.4 | 0.00 | 0.00 | 0.94 | 55 | 986.7 |
| 20260506215142 | 16 | 5 | 1.6 | 4.8 | 0.00 | 0.00 | 0.94 | 56 | 986.7 |
| 20260506214549 | 15 | 35 | 4.8 | 8.0 | 0.00 | 0.00 | 0.94 | 52 | 986.7 |
| 20260506213317 | 16 | 40 | 0.0 | 6.4 | 0.00 | 0.00 | 0.94 | 52 | 986.4 |
| 20260506212713 | 16 | 338 | 4.8 | 6.4 | 0.00 | 0.00 | 0.94 | 52 | 986.4 |
| 20260506212127 | 16 | 202 | 3.2 | 8.0 | 0.00 | 0.00 | 0.94 | 53 | 986.7 |
| 20260506210930 | 15 | 256 | 3.2 | 9.7 | 0.00 | 0.00 | 0.94 | 55 | 986.4 |
| 20260506210347 | 16 | 248 | 1.6 | 4.8 | 0.00 | 0.00 | 0.94 | 55 | 986.4 |
| 20260506204531 | 17 | 205 | 6.4 | 14.5 | 0.00 | 0.00 | 0.94 | 50 | 986.4 |
| 20260506203311 | 17 | 220 | 8.0 | 9.7 | 0.00 | 0.00 | 0.94 | 52 | 986.1 |
| 20260506202713 | 17 | 335 | 8.0 | 16.1 | 0.00 | 0.00 | 0.94 | 48 | 986.4 |
| 20260506201533 | 17 | 240 | 4.8 | 9.7 | 0.00 | 0.00 | 0.94 | 52 | 986.1 |
| 20260506200314 | 16 | 275 | 1.6 | 11.3 | 0.00 | 0.00 | 0.94 | 57 | 986.1 |
| 20260506195752 | 17 | 341 | 4.8 | 20.9 | 0.00 | 0.00 | 0.94 | 56 | 986.4 |
| 20260506194536 | 17 | 286 | 3.2 | 11.3 | 0.00 | 0.00 | 0.94 | 58 | 986.1 |
| 20260506193953 | 16 | 234 | 3.2 | 11.3 | 0.00 | 0.00 | 0.94 | 58 | 986.1 |
| 20260506193353 | 16 | 197 | 6.4 | 12.9 | 0.00 | 0.00 | 0.94 | 55 | 986.1 |
| 20260506192743 | 17 | 79 | 8.0 | 19.3 | 0.00 | 0.00 | 0.94 | 55 | 986.1 |
| 20260506192132 | 18 | 334 | 4.8 | 11.3 | 0.00 | 0.00 | 0.94 | 54 | 986.1 |
| 20260506191543 | 18 | 206 | 4.8 | 16.1 | 0.00 | 0.00 | 0.94 | 51 | 986.4 |
| 20260506190913 | 17 | 357 | 3.2 | 16.1 | 0.00 | 0.00 | 0.94 | 57 | 986.4 |
| 20260506190341 | 17 | 195 | 4.8 | 12.9 | 0.00 | 0.00 | 0.94 | 56 | 986.7 |
| 20260506185719 | 17 | 192 | 3.2 | 8.0 | 0.00 | 0.00 | 0.94 | 58 | 986.4 |
| 20260506184536 | 17 | 268 | 1.6 | 8.0 | 0.00 | 0.00 | 0.94 | 61 | 986.4 |
| 20260506183920 | 17 | 215 | 6.4 | 9.7 | 0.00 | 0.00 | 0.94 | 59 | 986.1 |
| 20260506183330 | 16 | 27 | 9.7 | 16.1 | 0.00 | 0.00 | 0.94 | 60 | 986.4 |
| 20260506182741 | 17 | 217 | 6.4 | 12.9 | 0.00 | 0.00 | 0.94 | 62 | 986.4 |
| 20260506181541 | 16 | 6 | 4.8 | 14.5 | 0.00 | 0.00 | 0.94 | 66 | 986.4 |
| 20260506180936 | 16 | 169 | 3.2 | 8.0 | 0.00 | 0.00 | 0.94 | 67 | 986.4 |
| 20260506180354 | 16 | 237 | 4.8 | 12.9 | 0.00 | 0.00 | 0.94 | 65 | 986.7 |
| 20260506175748 | 16 | 271 | 6.4 | 17.7 | 0.00 | 0.00 | 0.94 | 65 | 986.7 |
| 20260506175127 | 16 | 138 | 1.6 | 14.5 | 0.00 | 0.00 | 0.94 | 69 | 986.1 |
| 20260506174531 | 15 | 249 | 1.6 | 12.9 | 0.00 | 0.00 | 0.94 | 69 | 986.4 |
| 20260506173943 | 15 | 226 | 1.6 | 12.9 | 0.00 | 0.00 | 0.94 | 71 | 986.1 |
| 20260506173318 | 16 | 212 | 6.4 | 12.9 | 0.00 | 0.00 | 0.94 | 68 | 986.4 |
| 20260506172712 | 16 | 233 | 6.4 | 12.9 | 0.00 | 0.00 | 0.94 | 70 | 986.7 |
| 20260506172141 | 15 | 197 | 6.4 | 9.7 | 0.00 | 0.00 | 0.94 | 72 | 986.4 |
| 20260506170953 | 15 | 10 | 3.2 | 16.1 | 0.00 | 0.00 | 0.94 | 73 | 986.4 |
| 20260506170310 | 16 | 160 | 3.2 | 6.4 | 0.00 | 0.00 | 0.94 | 72 | 986.4 |
| 20260506163946 | 15 | 209 | 3.2 | 12.9 | 0.00 | 0.00 | 0.94 | 75 | 986.4 |
| 20260506163334 | 16 | 230 | 0.0 | 11.3 | 0.00 | 0.00 | 0.94 | 76 | 986.4 |
| 20260506162749 | 14 | 185 | 1.6 | 9.7 | 0.00 | 0.00 | 0.94 | 81 | 986.1 |
| 20260506162115 | 13 | 339 | 3.2 | 22.5 | 0.00 | 0.00 | 0.94 | 78 | 986.4 |
| 20260506161546 | 15 | 46 | 3.2 | 9.7 | 0.00 | 0.00 | 0.94 | 79 | 986.7 |
| 20260506160934 | 13 | 225 | 4.8 | 9.7 | 0.00 | 0.00 | 0.94 | 80 | 986.7 |
| 20260506160351 | 13 | 180 | 4.8 | 8.0 | 0.00 | 0.00 | 0.94 | 81 | 986.4 |
| 20260506155712 | 13 | 81 | 4.8 | 11.3 | 0.00 | 0.00 | 0.94 | 79 | 986.4 |
| 20260506155128 | 13 | 251 | 1.6 | 8.0 | 0.00 | 0.00 | 0.94 | 80 | 986.4 |
| 20260506154542 | 13 | 133 | 3.2 | 8.0 | 0.00 | 0.00 | 0.94 | 81 | 986.1 |
| 20260506153930 | 12 | 164 | 4.8 | 8.0 | 0.00 | 0.00 | 0.94 | 82 | 986.1 |
| 20260506153334 | 13 | 185 | 1.6 | 6.4 | 0.00 | 0.00 | 0.94 | 87 | 986.4 |
| 20260506152733 | 12 | 7 | 3.2 | 17.7 | 0.00 | 0.00 | 0.94 | 86 | 986.1 |
| 20260506151533 | 12 | 205 | 3.2 | 9.7 | 0.00 | 0.00 | 0.94 | 86 | 985.7 |
| 20260506150933 | 12 | 23 | 6.4 | 8.0 | 0.00 | 0.00 | 0.94 | 87 | 985.4 |
| 20260506150311 | 12 | 152 | 3.2 | 9.7 | 0.00 | 0.00 | 0.94 | 91 | 985.7 |
| 20260506145750 | 12 | 233 | 0.0 | 6.4 | 0.00 | 0.00 | 0.94 | 92 | 985.7 |
| 20260506145133 | 11 | 74 | 1.6 | 4.8 | 0.00 | 0.00 | 0.94 | 96 | 985.4 |
| 20260506144538 | 10 | 88 | 3.2 | 6.4 | 0.00 | 0.00 | 0.94 | 99 | 985.4 |
| 20260506143929 | 10 | 142 | 3.2 | 8.0 | 0.00 | 0.00 | 0.94 | 99 | 985.4 |
| 20260506143317 | 10 | 56 | 1.6 | 9.7 | 0.00 | 0.00 | 0.94 | 99 | 985.4 |
| 20260506142716 | 10 | 33 | 6.4 | 8.0 | 0.00 | 0.00 | 0.94 | 99 | 985.4 |
| 20260506142117 | 9 | 128 | 6.4 | 6.4 | 0.00 | 0.00 | 0.94 | 99 | 985.4 |
| 20260506141523 | 8 | 98 | 3.2 | 8.0 | 0.00 | 0.00 | 0.94 | 99 | 985.7 |
| 20260506140935 | 9 | 112 | 3.2 | 8.0 | 0.00 | 0.00 | 0.94 | 99 | 985.1 |
| 20260506140343 | 9 | 60 | 3.2 | 11.3 | 0.00 | 0.00 | 0.94 | 99 | 985.1 |
| 20260506135734 | 10 | 69 | 4.8 | 6.4 | 0.00 | 0.00 | 0.94 | 99 | 985.1 |
| 20260506135139 | 8 | 115 | 3.2 | 9.7 | 0.00 | 0.00 | 0.94 | 99 | 985.1 |
| 20260506134512 | 8 | 69 | 4.8 | 11.3 | 0.00 | 0.00 | 0.94 | 99 | 985.1 |
| 20260506133920 | 9 | 344 | 3.2 | 8.0 | 0.00 | 0.00 | 0.94 | 99 | 984.7 |
| 20260506133350 | 9 | 133 | 4.8 | 8.0 | 0.00 | 0.00 | 0.94 | 99 | 984.7 |
| 20260506132744 | 8 | 42 | 4.8 | 8.0 | 0.00 | 0.00 | 0.94 | 99 | 984.4 |
| 20260506132120 | 8 | 129 | 3.2 | 6.4 | 0.00 | 0.00 | 0.94 | 99 | 984.7 |
| 20260506131514 | 8 | 69 | 1.6 | 8.0 | 0.00 | 0.00 | 0.94 | 99 | 984.7 |
| 20260506130920 | 8 | 68 | 3.2 | 6.4 | 0.00 | 0.00 | 0.94 | 99 | 984.7 |
| 20260506125727 | 8 | 119 | 3.2 | 6.4 | 0.00 | 0.00 | 0.94 | 99 | 984.7 |
| 20260506125146 | 8 | 154 | 4.8 | 9.7 | 0.00 | 0.00 | 0.94 | 99 | 984.7 |
| 20260506124511 | 8 | 148 | 3.2 | 9.7 | 0.00 | 0.00 | 0.91 | 99 | 984.4 |
| 20260506123932 | 8 | 147 | 3.2 | 6.4 | 0.00 | 0.00 | 0.91 | 99 | 984.0 |
| 20260506123320 | 8 | 154 | 3.2 | 9.7 | 0.00 | 0.00 | 0.89 | 99 | 984.0 |
| 20260506122715 | 8 | 147 | 3.2 | 6.4 | 0.00 | 0.00 | 0.89 | 99 | 983.7 |
| 20260506122149 | 8 | 170 | 3.2 | 12.9 | 0.00 | 0.00 | 0.89 | 99 | 983.4 |
| 20260506121518 | 8 | 56 | 3.2 | 9.7 | 0.00 | 0.00 | 0.89 | 99 | 983.7 |
| 20260506120310 | 8 | 65 | 3.2 | 9.7 | 0.00 | 0.00 | 0.89 | 99 | 983.4 |
| 20260506115715 | 8 | 33 | 3.2 | 8.0 | 0.00 | 0.00 | 0.89 | 99 | 983.0 |
| 20260506115122 | 8 | 58 | 3.2 | 6.4 | 0.00 | 0.00 | 0.89 | 99 | 982.7 |
| 20260506114533 | 8 | 87 | 3.2 | 9.7 | 0.00 | 0.00 | 0.89 | 99 | 982.7 |
| 20260506113948 | 8 | 86 | 3.2 | 14.5 | 0.00 | 0.00 | 0.89 | 99 | 982.7 |
| 20260506112733 | 9 | 74 | 3.2 | 8.0 | 0.00 | 0.00 | 0.89 | 99 | 982.3 |
| 20260506111515 | 10 | 111 | 3.2 | 12.9 | 0.00 | 0.00 | 0.89 | 99 | 982.3 |
| 20260506110913 | 10 | 119 | 3.2 | 8.0 | 0.00 | 0.00 | 0.86 | 99 | 982.3 |
| 20260506105711 | 10 | 150 | 4.8 | 8.0 | 0.00 | 0.00 | 0.86 | 99 | 982.3 |
| 20260506105146 | 10 | 86 | 4.8 | 8.0 | 0.00 | 0.00 | 0.86 | 99 | 982.3 |
| 20260506103921 | 10 | 119 | 3.2 | 14.5 | 0.00 | 0.00 | 0.84 | 99 | |
| 20260506103351 | 10 | 148 | 4.8 | 8.0 | 0.00 | 0.00 | 0.84 | 99 | |
| 20260506102708 | 10 | 112 | 3.2 | 17.7 | 0.00 | 0.00 | 0.81 | 99 | |
| 20260506102109 | 11 | 33 | 6.4 | 9.7 | 0.00 | 0.00 | 0.81 | 99 | |
| 20260506100950 | 12 | 63 | 4.8 | 9.7 | 0.00 | 0.00 | 0.79 | 99 | |
| 20260506095711 | 13 | 124 | 3.2 | 8.0 | 0.00 | 0.00 | 0.79 | 99 | |
| 20260506095149 | 13 | 61 | 1.6 | 6.4 | 0.00 | 0.00 | 0.79 | 99 | |
| 20260506094538 | 13 | 89 | 0.0 | 6.4 | 0.00 | 0.00 | 0.79 | 99 | |
| 20260506093321 | 13 | 81 | 0.0 | 6.4 | 0.00 | 0.00 | 0.76 | 99 | |
| 20260506092747 | 13 | 70 | 1.6 | 6.4 | 0.00 | 0.00 | 0.71 | 99 | |
| 20260506092113 | 13 | 100 | 3.2 | 6.4 | 0.00 | 0.00 | 0.71 | 99 | |
| 20260506090323 | 13 | 129 | 3.2 | 6.4 | 0.00 | 0.00 | 0.69 | 99 | |
| 20260506085736 | 13 | 102 | 0.0 | 6.4 | 0.00 | 0.00 | 0.66 | 99 | |
| 20260506085114 | 13 | 70 | 3.2 | 8.0 | 0.00 | 0.00 | 0.66 | 99 | |
| 20260506083926 | 13 | 39 | 4.8 | 8.0 | 0.00 | 0.00 | 0.66 | 99 | |
| 20260506083337 | 13 | 78 | 3.2 | 6.4 | 0.00 | 0.00 | 0.66 | 99 | |
| 20260506082737 | 13 | 111 | 1.6 | 6.4 | 0.00 | 0.00 | 0.66 | 99 | |
| 20260506082142 | 13 | 96 | 3.2 | 8.0 | 0.00 | 0.00 | 0.64 | 99 | |
| 20260506081514 | 13 | 68 | 3.2 | 8.0 | 0.00 | 0.00 | 0.64 | 99 | |
| 20260506080930 | 13 | 22 | 3.2 | 6.4 | 0.00 | 0.00 | 0.64 | 99 | |
| 20260506080318 | 13 | 95 | 6.4 | 6.4 | 0.00 | 0.00 | 0.61 | 99 | |
| 20260506073309 | 13 | 126 | 3.2 | 6.4 | 0.00 | 0.00 | 0.56 | 99 | |
| 20260506072709 | 13 | 40 | 3.2 | 8.0 | 0.00 | 0.00 | 0.56 | 99 | |
| 20260506072143 | 14 | 100 | 3.2 | 6.4 | 0.00 | 0.00 | 0.53 | 99 | |
| 20260506071550 | 14 | 69 | 1.6 | 4.8 | 0.00 | 0.00 | 0.53 | 99 | |
| 20260506070908 | 14 | 97 | 3.2 | 4.8 | 0.00 | 0.00 | 0.53 | 99 | |
| 20260506070330 | 14 | 98 | 3.2 | 4.8 | 0.00 | 0.00 | 0.53 | 99 | |
| 20260506062127 | 14 | 114 | 0.0 | 8.0 | 0.00 | 0.00 | 0.41 | 99 | |
| 20260506061510 | 14 | 75 | 3.2 | 8.0 | 0.00 | 0.00 | 0.41 | 99 | |
| 20260506060342 | 14 | 97 | 3.2 | 6.4 | 0.00 | 0.00 | 0.38 | 99 | |
| 20260506050949 | 14 | 91 | 0.0 | 4.8 | 0.00 | 0.00 | 0.30 | 99 | |
| 20260506050336 | 14 | 80 | 1.6 | 4.8 | 0.00 | 0.00 | 0.30 | 99 | 982.3 |
| 20260506044516 | 14 | 97 | 1.6 | 4.8 | 0.00 | 0.00 | 0.23 | 99 | 982.3 |
| 20260506043920 | 14 | 125 | 3.2 | 6.4 | 0.00 | 0.00 | 0.20 | 99 | 982.3 |
| 20260506042725 | 14 | 118 | 1.6 | 4.8 | 0.00 | 0.00 | 0.18 | 99 | 982.7 |
| 20260506042128 | 14 | 97 | 3.2 | 4.8 | 0.00 | 0.00 | 0.15 | 99 | 983.0 |
| 20260506041543 | 15 | 102 | 3.2 | 6.4 | 0.00 | 0.00 | 0.10 | 99 | 983.0 |
| 20260506040349 | 15 | 219 | 0.0 | 1.6 | 0.00 | 0.00 | 0.00 | 99 | 983.4 |
| 20260506035712 | 15 | 153 | 1.6 | 3.2 | 0.00 | 0.00 | 0.10 | 99 | 983.4 |
| 20260506035141 | 15 | 165 | 1.6 | 3.2 | 0.00 | 0.00 | 0.08 | 99 | 983.4 |
| 20260506033949 | 15 | 159 | 0.0 | 3.2 | 0.00 | 0.00 | 0.05 | 99 | 983.4 |
| 20260506033317 | 15 | 137 | 0.0 | 3.2 | 0.00 | 0.00 | 0.05 | 99 | 983.0 |
| 20260506032715 | 15 | 29 | 0.0 | 3.2 | 0.00 | 0.00 | 0.05 | 99 | 982.7 |
| 20260506032147 | 15 | 129 | 0.0 | 1.6 | 0.00 | 0.00 | 0.05 | 99 | 982.7 |
| 20260506031550 | 15 | 154 | 0.0 | 1.6 | 0.00 | 0.00 | 0.05 | 99 | 983.0 |
| 20260506030915 | 15 | 195 | 0.0 | 1.6 | 0.00 | 0.00 | 0.05 | 98 | 983.0 |
| 20260506030347 | 15 | 180 | 0.0 | 1.6 | 0.00 | 0.00 | 0.05 | 98 | 982.7 |
| 20260506025746 | 15 | 214 | 0.0 | 1.6 | 0.00 | 0.00 | 0.05 | 97 | 982.7 |
| 20260506025129 | 15 | 180 | 0.0 | 1.6 | 0.00 | 0.00 | 0.05 | 97 | 982.7 |
| 20260506024518 | 15 | 152 | 1.6 | 3.2 | 0.00 | 0.00 | 0.03 | 96 | 982.7 |
| 20260506023916 | 15 | 189 | 1.6 | 3.2 | 0.00 | 0.00 | 0.03 | 95 | 982.7 |
| 20260506023351 | 16 | 206 | 1.6 | 3.2 | 0.00 | 0.00 | 0.03 | 93 | 983.0 |
| 20260506022716 | 16 | 153 | 1.6 | 3.2 | 0.00 | 0.00 | 0.00 | 91 | 982.7 |
| 20260506022143 | 16 | 187 | 1.6 | 3.2 | 0.00 | 0.00 | 0.00 | 89 | 982.7 |
| 20260506021545 | 16 | 197 | 0.0 | 3.2 | 0.00 | 0.00 | 0.00 | 87 | 982.7 |